Location: Escondida
(34.1015°N, 106.8964°W)
Time: 14:31:41
(UTC+00:00)

ESTCUBE 1 - Visible Passes

Search period start: 11 April 2026 00:00
Search period end: 21 April 2026 00:00
Orbit: 620 x 631 km, 97.7° (Epoch: 11 April)

Date Brightness Start Highest point End Pass type
(mag) Time Alt. Az. Time Alt. Az. Time Alt. Az.
11 Apr ? 03:00:17 18° ENE 03:00:17 18° ENE 03:02:40 10° NNE visible
11 Apr ? 04:37:33 23° NW 04:37:33 23° NW 04:39:37 10° NNW visible
12 Apr ? 03:19:21 27° NE 03:19:21 27° NE 03:22:17 10° NNE visible
12 Apr ? 04:56:37 15° WNW 04:56:37 15° WNW 04:57:56 10° NW visible
13 Apr ? 03:38:25 39° NNE 03:38:25 39° NNE 03:41:35 10° N visible
14 Apr ? 03:57:29 47° N 03:57:29 47° N 04:00:39 10° N visible
15 Apr ? 02:39:16 11° ENE 02:39:31 11° ENE 02:40:32 10° NE visible
15 Apr ? 04:16:32 39° NW 04:16:32 39° NW 04:19:32 10° NNW visible
16 Apr ? 02:58:20 18° ENE 02:58:20 18° ENE 03:01:09 10° NNE visible
16 Apr ? 04:35:36 27° WNW 04:35:36 27° WNW 04:38:10 10° NNW visible
17 Apr ? 03:17:23 28° ENE 03:17:23 28° ENE 03:20:46 10° NNE visible
17 Apr ? 04:54:40 18° WNW 04:54:40 18° WNW 04:56:30 10° NW visible
18 Apr ? 03:36:27 43° NE 03:36:27 43° NE 03:40:04 10° N visible
18 Apr ? 05:13:43 11° WNW 05:13:43 11° WNW 05:14:03 10° WNW visible
19 Apr ? 03:55:30 60° N 03:55:30 60° N 03:59:08 10° N visible
20 Apr ? 02:37:17 10° ENE 02:38:00 10° ENE 02:38:44 10° NE visible
20 Apr ? 04:14:33 48° NW 04:14:33 48° NW 04:18:00 10° NNW visible
